Weather History for Brainerd, MN

Change the Weather History Date:

Monday, December 17, 2012

  Actual Average Record
Temperature  
Mean Temperature 20 °F -  
Max Temperature 21 °F 24 °F 44 °F (1959)
Min Temperature 19 °F 0 °F -32 °F (1983)
Degree Days  
Heating Degree Days 45    
Moisture  
Dew Point 17 °F    
Average Humidity 86    
Maximum Humidity 93    
Minimum Humidity 81    
Precipitation  
Precipitation 0.00 in - - ()
Sea Level Pressure  
Sea Level Pressure 29.78 in    
Wind  
Wind Speed 4 mph (NW)    
Max Wind Speed 7 mph    
Max Gust Speed -    
Visibility 8 miles    
Events      
Averages and records for this station are not official NWS values.
T = Trace of Precipitation, MM = Missing Value Source: NWS Daily Summary

Daily Weather History Graph

Daily Weather History Graph

Search for Another Location

Airport:

Trip Planner

Search our weather history database for the weather conditions in past years. The results will help you decide how hot, cold, wet, or windy it might be!

Date:

Astronomy

Dec. 17, 2012 Rise Set
Actual Time 7:55 AM CST 4:30 PM CST
Civil Twilight 7:20 AM CST 5:05 PM CST
Nautical Twilight 6:41 AM CST 5:44 PM CST
Astronomical Twilight 6:05 AM CST 6:20 PM CST
Moon 10:49 AM CST (12/17) 10:09 PM CST (12/17)
Length of Visible Light 9h 45m
Length of Day
8h 35m
Waxing Crescent, 25% of the Moon is Illuminated
Dec 17
Waxing Crescent
Dec 19
First Quarter
Dec 28
Full
Jan 4
Last Quarter
Jan 11
New

Hourly Weather History & Observations

Time (CST) Temp. Windchill Dew Point Humidity Pressure Visibility Wind Dir Wind Speed Gust Speed Precip Events Conditions
12:31 AM 21.2 °F 12.6 °F 17.6 °F 86% 29.77 in 10.0 mi NNW 6.9 mph - N/A   Overcast
12:53 AM 21.0 °F 13.4 °F 17.1 °F 85% 29.84 in 9.0 mi NW 5.8 mph - N/A   Overcast
1:53 AM 21.0 °F 13.4 °F 17.1 °F 85% 29.83 in 9.0 mi NW 5.8 mph - N/A   Overcast
2:53 AM 19.9 °F 12.1 °F 17.1 °F 89% 29.83 in 10.0 mi NNW 5.8 mph - N/A   Overcast
3:20 AM 19.4 °F 11.5 °F 15.8 °F 86% 29.75 in 10.0 mi North 5.8 mph - N/A   Overcast
3:44 AM 21.2 °F 16.4 °F 17.6 °F 86% 29.75 in 9.0 mi North 3.5 mph - N/A   Overcast
3:53 AM 21.0 °F 16.2 °F 17.1 °F 85% 29.81 in 9.0 mi North 3.5 mph - N/A   Overcast
4:53 AM 19.9 °F 14.9 °F 17.1 °F 89% 29.81 in 8.0 mi West 3.5 mph - N/A   Overcast
5:53 AM 19.9 °F 12.1 °F 17.1 °F 89% 29.81 in 8.0 mi West 5.8 mph - N/A   Overcast
6:53 AM 19.9 °F 13.4 °F 16.0 °F 85% 29.80 in 10.0 mi NE 4.6 mph - N/A   Overcast
7:53 AM 19.9 °F - 17.1 °F 89% 29.79 in 10.0 mi Calm Calm - N/A   Overcast
8:53 AM 19.9 °F - 16.0 °F 85% 29.81 in 8.0 mi Calm Calm - N/A   Overcast
9:53 AM 19.9 °F 13.4 °F 17.1 °F 89% 29.81 in 5.0 mi Variable 4.6 mph - N/A   Overcast
10:53 AM 19.9 °F 13.4 °F 16.0 °F 85% 29.80 in 5.0 mi SSE 4.6 mph - N/A   Overcast
11:39 AM 19.4 °F - 17.6 °F 93% 29.71 in 2.5 mi Calm Calm - N/A   Overcast
11:53 AM 19.9 °F - 17.1 °F 89% 29.78 in 3.0 mi Calm Calm - N/A   Overcast
12:53 PM 19.9 °F - 16.0 °F 85% 29.76 in 7.0 mi Calm Calm - N/A   Overcast
1:53 PM 19.9 °F 12.1 °F 16.0 °F 85% 29.75 in 7.0 mi SSW 5.8 mph - N/A   Overcast
2:53 PM 19.9 °F - 17.1 °F 89% 29.74 in 6.0 mi Calm Calm - N/A   Overcast
3:53 PM 19.9 °F 14.9 °F 16.0 °F 85% 29.74 in 6.0 mi SSW 3.5 mph - N/A   Overcast
6:53 PM 19.9 °F 14.9 °F 15.1 °F 81% 29.75 in 9.0 mi SE 3.5 mph - N/A   Overcast
7:53 PM 19.9 °F - 15.1 °F 81% 29.75 in 7.0 mi Calm Calm - N/A   Overcast
8:53 PM 19.9 °F - 15.1 °F 81% 29.75 in 8.0 mi Calm Calm - N/A   Overcast
9:53 PM 19.9 °F - 15.1 °F 81% 29.74 in 8.0 mi Calm Calm - N/A   Overcast
10:53 PM 19.9 °F - 16.0 °F 85% 29.74 in 7.0 mi Calm Calm - N/A   Overcast
11:53 PM 21.0 °F - 17.1 °F 85% 29.74 in 6.0 mi Calm Calm - N/A   Overcast